Other Public Products
Issued by NWS Charleston, SC

Current Version | Previous Version | Text Only | Print | Product List | Glossary Off
Versions: 1 2 3 4 5 6 7 8 9 10 11 12 13 14 15 16 17 18 19 20 21 22 23 24 25 26 27 28 29 30 31 32 33 34 35 36 37 38 39 40 41 42 43 44 45 46 47 48 49 50

539
FPUS82 KCHS 271912
OPUCHS

TEST...KCHS/KSAV Gateway Observations...TEST
National Weather Service Charleston SC
300 PM EDT THU JUL 27 2017

NOTE: "fair" indicates few or no clouds below 12,000 feet with no
significant weather and/or obstructions to visibility.

SCZ050-WAZ558-NCZ071-TXZ119-213-PAZ071-DCZ001-FLZ074-172-MI076-
NYZ176-178-MAZ016-IL014-TNZ027-NJZ106-GAZ044-MD014-272000-

...Gateway Observations for Charleston International...

CITY           SKY/WX    TMP DP  RH WIND       PRES   REMARKS
Chas Airport   MOSUNNY   88  71  57 S8        29.98F HX  94
Seattle        CLOUDY    62  52  69 SW7       30.18S
Charlotte      CLOUDY    88  71  57 SW7       30.01F HX  94
Dallas DFW     CLOUDY    96  70  42 S3        29.98F HX 102
Dallas Love    CLOUDY    96  67  38 SW9       29.98F HX 100
Philladelphia  CLOUDY    79  70  74 S7        29.93F
Wash National  CLOUDY    85  73  67 S8        29.91F HX  91
Baltimore      CLOUDY    84  72  67 S8        29.90F
Miami          MOSUNNY   93  73  52 E13       29.99F HX 102
Detroit        PTSUNNY   84  65  52 E6        29.91S
Newark         LGT RAIN  77  68  73 SE3       29.93F
Laguardia      CLOUDY    74  69  85 S13       29.93F
J F K          CLOUDY    75  69  81 S10       29.96F
Boston Logan   LGT RAIN  69  65  86 SW13      29.92F
Ft. Lauderdale MOSUNNY   90  75  61 E12       29.99F HX 100
Chicago O`Hare PTSUNNY   80  68  66 NE13      29.94F
Chicago Midway MOSUNNY   81  70  69 N13       29.93F
Houston Bush   MOSUNNY   94  72  48 VRB5      30.03F HX 102
Houston Hobby  MOSUNNY   97  70  41 VRB5      30.03F HX 103
Nashville      CLOUDY    92  73  53 VRB7      29.97F HX 100
Atlanta        MOSUNNY   89  70  53 VRB5      30.02F HX  94

$$

GAZ044-118-TXZ119-213-NCZ071-DCZ001-MDZ014-506-PAZ021-071-NJZ106-
NYZ176-178-MAZ106-OHZ011-021-055-MIZ076-KYZ091-ILZ014-INZ047-
MNZ060-ONZ431-272000-

...Gateway Observations for Savannah International...

CITY           SKY/WX    TMP DP  RH WIND       PRES   REMARKS
Savannah Arpt  CLOUDY    84  74  71 E14       29.98F HX  91
Atlanta        MOSUNNY   89  70  53 VRB5      30.02F HX  94
Charlotte      CLOUDY    88  71  57 SW7       30.01F HX  94
Dallas DFW     CLOUDY    96  70  42 S3        29.98F HX 102
Houston Bush   MOSUNNY   94  72  48 VRB5      30.03F HX 102
Wash National  CLOUDY    85  73  67 S8        29.91F HX  91
Wash Dulles    CLOUDY    83  71  67 SW6       29.92F
Baltimore      CLOUDY    84  72  67 S8        29.90F
Philadelphia   CLOUDY    79  70  74 S7        29.93F
Newark         LGT RAIN  77  68  73 SE3       29.93F
Laguardia      CLOUDY    74  69  85 S13       29.93F
J F K          CLOUDY    75  69  81 S10       29.96F
Boston         LGT RAIN  69  65  86 SW13      29.92F
Pittsburg      CLOUDY    80  65  59 SW6       29.94F
Akron          PTSUNNY   85  65  51 CALM      29.93F
Cleveland      MOSUNNY   87  65  47 N7        29.92F
Cincinnati     CLOUDY    83  73  72 W15       29.93F
Columbus       RAIN      73  73 100 S6        29.92F
Detroit        PTSUNNY   84  65  52 E6        29.91S
Chicago O`Hare PTSUNNY   80  68  66 NE13      29.94F
Minneapolis    MOSUNNY   84  59  42 NE9       30.07S
Indianapolis   CLOUDY    78  72  81 W15       29.92S
Toronto Canada PTSUNNY   75  68  78 SE6       29.89F

$$




USA.gov is the U.S. government's official web portal to all federal, state and local government web resources and services.